Oscoda, MI

2:27 AM EDT on September 20, 2019 (GMT -0400)
Oscoda-Wurtsmith

Weather History for KOSC - July, 2019

Change the Weather History Date:

Wednesday, July 17, 2019

  Actual Average Record
Temperature  
Mean Temperature 69 °F -  
Max Temperature 76 °F 77 °F 97 °F (2012)
Min Temperature 62 °F 57 °F 49 °F (2014)
Cooling Degree Days 4    
Growing Degree Days 19 (Base 50)    
Moisture  
Dew Point 62 °F    
Average Humidity 75    
Maximum Humidity 99    
Minimum Humidity 60    
Precipitation  
Precipitation 0.00 in - - ()
Sea Level Pressure  
Sea Level Pressure 29.94 in    
Wind  
Wind Speed 6 mph (NNE)    
Max Wind Speed 13 mph    
Max Gust Speed 18 mph    
Visibility 10 miles    
Events      
Averages and records for this station are not official NWS values.
T = Trace of Precipitation, MM = Missing Value Source: NWS Daily Summary

Daily Weather History Graph

Daily Weather History Graph

Search for Another Location

Airport or City:

Astronomy

Jul. 17, 2019 Rise Set
Actual Time 6:04 AM EDT 9:14 PM EDT
Civil Twilight 5:29 AM EDT 9:49 PM EDT
Nautical Twilight 4:44 AM EDT 10:34 PM EDT
Astronomical Twilight 3:48 AM EDT 11:29 PM EDT
Moon 10:01 PM EDT (7/17) 6:36 AM EDT (7/17)
Length of Visible Light 16h 19m
Length of Day
15h 09m
Waxing Gibbous, 99% of the Moon is Illuminated
Jul 17
Waxing Gibbous
Jul 24
Last Quarter
Jul 31
New
Aug 7
First Quarter
Aug 15
Full

Hourly Weather History & Observations

Time (EDT) Temp. Dew Point Humidity Pressure Visibility Wind Dir Wind Speed Gust Speed Precip Events Conditions
12:15 AM 70.3 °F 65.3 °F 84% 29.89 in 10.0 mi NE 4.6 mph - N/A   Mostly Cloudy
12:16 AM 70.3 °F 65.3 °F 84% 29.89 in 10.0 mi NE 3.5 mph - N/A   Mostly Cloudy
12:35 AM 70.3 °F 65.3 °F 84% 29.89 in 10.0 mi NE 3.5 mph - N/A   Overcast
12:55 AM 70.2 °F 65.1 °F 84% 29.90 in 10.0 mi NNE 5.8 mph - N/A   Overcast
1:18 AM 70.2 °F 65.3 °F 85% 29.90 in 10.0 mi NNE 6.9 mph - N/A   Overcast
1:36 AM 70.0 °F 65.3 °F 85% 29.90 in 10.0 mi NNE 4.6 mph - N/A   Overcast
1:55 AM 70.0 °F 65.3 °F 85% 29.89 in 10.0 mi North 4.6 mph - N/A   Overcast
1:56 AM 69.8 °F 65.3 °F 86% 29.89 in 10.0 mi North 5.8 mph - N/A   Overcast
2:15 AM 69.6 °F 64.9 °F 85% 29.89 in 10.0 mi North 4.6 mph - N/A   Overcast
2:39 AM 68.5 °F 64.8 °F 88% 29.89 in 10.0 mi Calm Calm - N/A   Overcast
2:57 AM 68.4 °F 64.8 °F 88% 29.89 in 10.0 mi Calm Calm - N/A   Mostly Cloudy
3:15 AM 67.3 °F 65.3 °F 93% 29.89 in 10.0 mi NNW 4.6 mph - N/A   Scattered Clouds
3:16 AM 67.3 °F 65.3 °F 93% 29.89 in 10.0 mi NNW 4.6 mph - N/A   Scattered Clouds
3:35 AM 66.9 °F 65.3 °F 95% 29.89 in 10.0 mi North 4.6 mph - N/A   Scattered Clouds
3:36 AM 66.9 °F 65.3 °F 95% 29.89 in 10.0 mi North 4.6 mph - N/A   Scattered Clouds
3:55 AM 67.1 °F 65.5 °F 95% 29.89 in 10.0 mi NNW 3.5 mph - N/A   Mostly Cloudy
4:18 AM 67.3 °F 65.7 °F 95% 29.89 in 10.0 mi Calm Calm - N/A   Overcast
4:36 AM 67.1 °F 65.5 °F 95% 29.88 in 10.0 mi North 3.5 mph - N/A   Mostly Cloudy
4:55 AM 66.6 °F 65.7 °F 97% 29.89 in 10.0 mi Calm Calm - N/A   Scattered Clouds
4:56 AM 66.6 °F 65.7 °F 97% 29.89 in 10.0 mi Calm Calm - N/A   Scattered Clouds
5:15 AM 66.2 °F 65.3 °F 97% 29.90 in 10.0 mi Calm Calm - N/A   Clear
5:39 AM 65.8 °F 65.3 °F 98% 29.90 in 10.0 mi NW 3.5 mph - N/A   Clear
5:57 AM 65.7 °F 65.3 °F 99% 29.91 in 10.0 mi NNW 3.5 mph - N/A   Clear
6:15 AM 65.8 °F 64.4 °F 95% 29.91 in 10.0 mi North 4.6 mph - N/A   Clear
6:35 AM 65.8 °F 63.5 °F 92% 29.92 in 10.0 mi North 3.5 mph - N/A   Clear
6:36 AM 65.8 °F 63.5 °F 92% 29.92 in 10.0 mi North 3.5 mph - N/A   Clear
6:55 AM 66.4 °F 63.0 °F 89% 29.91 in 10.0 mi North 3.5 mph - N/A   Clear
7:00 AM 66.6 °F 62.6 °F 87% 29.92 in 10.0 mi North 4.6 mph - N/A   Clear
7:18 AM 67.1 °F 61.7 °F 83% 29.92 in 10.0 mi Calm Calm - N/A   Clear
7:36 AM 67.6 °F 61.5 °F 81% 29.92 in 10.0 mi NNW 5.8 mph - N/A   Clear
7:55 AM 67.5 °F 61.7 °F 82% 29.93 in 10.0 mi NNW 3.5 mph - N/A   Clear
8:15 AM 67.6 °F 61.7 °F 81% 29.93 in 10.0 mi NNW 3.5 mph - N/A   Clear
8:39 AM 68.4 °F 61.7 °F 79% 29.93 in 10.0 mi NNW 4.6 mph - N/A   Clear
8:57 AM 69.6 °F 61.9 °F 76% 29.93 in 10.0 mi North 5.8 mph - N/A   Clear
9:15 AM 70.9 °F 61.3 °F 72% 29.94 in 10.0 mi NNE 6.9 mph - N/A   Clear
9:35 AM 72.5 °F 61.9 °F 69% 29.93 in 10.0 mi NNE 5.8 mph - N/A   Clear
9:55 AM 73.8 °F 62.4 °F 68% 29.93 in 10.0 mi North 4.6 mph - N/A   Clear
10:18 AM 74.7 °F 62.4 °F 66% 29.93 in 10.0 mi ENE 8.1 mph - N/A   Clear
10:36 AM 75.6 °F 62.2 °F 63% 29.93 in 10.0 mi NE 9.2 mph - N/A   Clear
10:55 AM 76.1 °F 61.7 °F 61% 29.93 in 10.0 mi NNE 10.4 mph - N/A   Clear
10:56 AM 75.9 °F 61.5 °F 61% 29.93 in 10.0 mi NNE 11.5 mph 17.3 mph N/A   Clear
11:15 AM 75.9 °F 62.1 °F 62% 29.94 in 10.0 mi NNE 11.5 mph - N/A   Clear
11:39 AM 76.3 °F 62.4 °F 62% 29.96 in 10.0 mi NE 10.4 mph - N/A   Clear
11:57 AM 75.6 °F 62.1 °F 63% 29.97 in 10.0 mi NE 11.5 mph - N/A   Clear
12:15 PM 76.6 °F 62.2 °F 61% 29.97 in 10.0 mi NE 11.5 mph 17.3 mph N/A   Clear
12:35 PM 76.1 °F 61.9 °F 61% 29.97 in 10.0 mi ENE 11.5 mph - N/A   Clear
12:36 PM 75.9 °F 61.9 °F 62% 29.97 in 10.0 mi ENE 11.5 mph - N/A   Clear
12:55 PM 74.5 °F 61.2 °F 63% 29.97 in 10.0 mi NE 12.7 mph - N/A   Clear
1:00 PM 74.3 °F 61.5 °F 64% 29.96 in 10.0 mi NE 11.5 mph - N/A   Clear
1:18 PM 74.3 °F 61.7 °F 65% 29.96 in 10.0 mi ENE 9.2 mph - N/A   Clear
1:36 PM 74.3 °F 61.3 °F 64% 29.97 in 10.0 mi NNE 8.1 mph - N/A   Clear
1:55 PM 75.2 °F 61.7 °F 63% 29.97 in 10.0 mi NNE 9.2 mph - N/A   Clear
1:56 PM 75.2 °F 61.3 °F 62% 29.97 in 10.0 mi NNE 6.9 mph - N/A   Clear
2:15 PM 75.2 °F 61.9 °F 63% 29.97 in 10.0 mi ENE 6.9 mph - N/A   Clear
2:16 PM 75.4 °F 62.1 °F 63% 29.98 in 10.0 mi NE 6.9 mph - N/A   Clear
2:39 PM 75.6 °F 62.1 °F 63% 29.97 in 10.0 mi NE 9.2 mph - N/A   Clear
2:57 PM 75.6 °F 61.7 °F 62% 29.97 in 10.0 mi NE 11.5 mph - N/A   Clear
3:15 PM 76.3 °F 61.7 °F 60% 29.97 in 10.0 mi NE 10.4 mph - N/A   Clear
3:35 PM 75.4 °F 61.5 °F 62% 29.96 in 10.0 mi NE 11.5 mph - N/A   Clear
3:36 PM 75.6 °F 61.5 °F 62% 29.96 in 10.0 mi NNE 11.5 mph - N/A   Clear
3:55 PM 74.8 °F 61.2 °F 62% 29.96 in 10.0 mi NNE 10.4 mph - N/A   Clear
4:00 PM 75.2 °F 61.0 °F 61% 29.96 in 10.0 mi ENE 10.4 mph - N/A   Clear
4:18 PM 74.5 °F 60.8 °F 62% 29.96 in 10.0 mi NE 10.4 mph - N/A   Clear
4:36 PM 75.6 °F 61.2 °F 61% 29.96 in 10.0 mi NE 10.4 mph - N/A   Clear
4:55 PM 75.2 °F 60.8 °F 61% 29.95 in 10.0 mi NE 11.5 mph 18.4 mph N/A   Clear
5:15 PM 74.5 °F 60.3 °F 61% 29.95 in 10.0 mi ENE 10.4 mph - N/A   Clear
5:16 PM 74.5 °F 60.3 °F 61% 29.95 in 10.0 mi NE 9.2 mph - N/A   Clear
5:39 PM 74.5 °F 60.1 °F 61% 29.95 in 10.0 mi NE 10.4 mph - N/A   Clear
5:57 PM 74.3 °F 59.9 °F 61% 29.95 in 10.0 mi ENE 11.5 mph - N/A   Clear
6:15 PM 73.9 °F 59.9 °F 61% 29.95 in 10.0 mi ENE 10.4 mph - N/A   Clear
6:35 PM 73.4 °F 59.5 °F 62% 29.95 in 10.0 mi NE 9.2 mph - N/A   Clear
6:55 PM 72.5 °F 59.0 °F 62% 29.95 in 10.0 mi NE 8.1 mph - N/A   Clear
7:00 PM 72.5 °F 59.0 °F 62% 29.95 in 10.0 mi ENE 6.9 mph - N/A   Clear
7:18 PM 72.7 °F 58.3 °F 60% 29.95 in 10.0 mi NE 8.1 mph - N/A   Clear
7:36 PM 72.5 °F 57.7 °F 60% 29.96 in 10.0 mi ENE 9.2 mph - N/A   Clear
7:55 PM 71.2 °F 57.2 °F 61% 29.95 in 10.0 mi NE 6.9 mph - N/A   Clear
8:15 PM 70.5 °F 57.4 °F 63% 29.96 in 10.0 mi ENE 4.6 mph - N/A   Clear
8:39 PM 69.1 °F 58.1 °F 68% 29.95 in 10.0 mi ENE 6.9 mph - N/A   Clear
8:57 PM 67.5 °F 58.5 °F 73% 29.95 in 10.0 mi NE 6.9 mph - N/A   Clear
9:16 PM 67.1 °F 58.6 °F 74% 29.96 in 10.0 mi NE 5.8 mph - N/A   Clear
9:35 PM 66.2 °F 58.5 °F 76% 29.96 in 1.2 mi NNE 4.6 mph - N/A   Haze
9:55 PM 65.8 °F 58.8 °F 78% 29.96 in 10.0 mi NE 3.5 mph - N/A   Clear
10:18 PM 63.7 °F 58.1 °F 82% 29.97 in 10.0 mi Calm Calm - N/A   Clear
10:36 PM 64.6 °F 58.6 °F 81% 29.96 in 10.0 mi Calm Calm - N/A   Clear
10:55 PM 64.8 °F 58.5 °F 80% 29.96 in 10.0 mi NNW 3.5 mph - N/A   Clear
10:56 PM 64.8 °F 58.5 °F 80% 29.96 in 10.0 mi NNW 3.5 mph - N/A   Clear
11:15 PM 63.3 °F 58.1 °F 83% 29.96 in 10.0 mi Calm Calm - N/A   Clear
11:39 PM 62.2 °F 57.9 °F 86% 29.95 in 10.0 mi Calm Calm - N/A   Clear
11:57 PM 63.0 °F 58.1 °F 84% 29.95 in 10.0 mi Calm Calm - N/A   Clear